Notices

What's New in latest Release from April 7th, 2021:

- Updated Glossary, including Speed of Maximum Gust, and Total Hourly Precipitation

- Updated national and regional climate services offices contacts and prices information

- Addition of station inventory lists for 1981-2010, 1971-2000, and 1961-1990 Normals.

If you haven't already, please take our survey and provide feedback about our website: https://eccc.sondage-survey.ca/f/LanguageSelection.aspx?s=442ca660-fcf1-47c0-95a9-59707d6fd709

Hourly Data Report for January 31, 2017

TORONTO CITY
ONTARIO

43°40'00.000" N
79°24'00.000" W
112.50 m
6158355
71508
XTO

Download Data

Hourly Data (January 2017)
Hourly Data Report for January 31, 2017
TIME
LST
Temp Definition
°C
Dew Point Definition
°C
Rel Hum Definition
%
Precip. Amount Definition
mm

Wind Dir Definition
10's deg

Wind Spd Definition
km/h
Visibility Definition
km
Stn Press Definition
kPa
Hmdx Definition


Wind Chill Definition


Weather Definition


00:00 -4.9 -13.8 50 0.0 LegendMM LegendMM   99.83     LegendNANA
01:00 -4.7 -13.7 49 0.0 LegendMM LegendMM   99.73     LegendNANA
02:00 -4.0 -11.9 54 0.0 LegendMM LegendMM   99.62     LegendNANA
03:00 -3.5 -12.1 51 0.0 LegendMM LegendMM   99.51     LegendNANA
04:00 -3.3 -10.0 60 0.0 LegendMM LegendMM   99.40     LegendNANA
05:00 -3.4 -8.8 66 0.0 LegendMM LegendMM   99.29     LegendNANA
06:00 -3.1 -8.8 65 0.0 LegendMM LegendMM   99.21     LegendNANA
07:00 -2.9 -8.7 64 0.0 LegendMM LegendMM   99.17     LegendNANA
08:00 -2.9 -8.3 66 0.0 LegendMM LegendMM   99.16     LegendNANA
09:00 -2.5 -7.6 68 0.0 LegendMM LegendMM   99.13     LegendNANA
10:00 -2.7 -6.2 77 0.0 LegendMM LegendMM   99.09     LegendNANA
11:00 -2.5 -6.1 76 0.0 LegendMM LegendMM   99.05     LegendNANA
12:00 -2.3 -5.4 79 0.0 LegendMM LegendMM   99.02     LegendNANA
13:00 -2.2 -5.2 80 0.0 LegendMM LegendMM   98.98     LegendNANA
14:00 -2.2 -4.3 85 0.0 LegendMM LegendMM   98.96     LegendNANA
15:00 -2.0 -4.6 82 0.2 LegendMM LegendMM   98.99     LegendNANA
16:00 -2.1 -4.3 85 0.0 LegendMM LegendMM   99.08     LegendNANA
17:00 -2.0 -4.2 85 0.0 LegendMM LegendMM   99.13     LegendNANA
18:00 -1.9 -4.2 84 0.0 LegendMM LegendMM   99.18     LegendNANA
19:00 -2.1 -4.4 85 0.0 LegendMM LegendMM   99.20     LegendNANA
20:00 -2.4 -4.0 89 0.5 LegendMM LegendMM   99.18     LegendNANA
21:00 -2.3 -3.6 91 0.5 LegendMM LegendMM   99.17     LegendNANA
22:00 -2.5 -3.8 91 0.3 LegendMM LegendMM   99.14     LegendNANA
23:00 -2.9 -4.2 91 0.4 LegendMM LegendMM   99.14     LegendNANA

Notes on Data Quality.

Legend

  • E = Estimated
  • M = Missing
  • NA = Not Available*
  • [empty] = Indicates an unobserved value
Date modified: